{"data":{"norad_id":60356,"intl_designator":"2024-138B","name":"STARLINK-32278","alt_names":[],"object_type":"PAYLOAD","status":"ACTIVE","operator":null,"country":"US","launch_date":"2024-08-04","launch_site_code":"AFWTR","launch_vehicle":null,"mission":null,"orbit_class":"UNKNOWN","rcs_meters":null,"size_class":null,"mass_kg":null,"dimensions":null,"purposes":["comms"],"wikipedia_slug":null,"has_3d_model":false,"image_url":null,"decayed_at":null,"tle_current":{"epoch":"2026-09-21T20:55:16.647744Z","epoch_age_seconds":67072,"freshness":"FRESH","line1":"1 60356U 24138B   26264.87172046 -.00000221  00000+0  45979-5 0  9997","line2":"2 60356  53.1599 116.9523 0001316  88.5389 271.5765 15.34391579120680","mean_motion":15.34391579,"eccentricity":0.0001316,"inclination_deg":53.1599,"raan_deg":116.9523,"arg_perigee_deg":88.5389,"mean_anomaly_deg":271.5765,"bstar":4.5979e-6,"rev_number":12068,"period_min":93.848273133673,"perigee_km":461.82801143878,"apogee_km":463.62852717766,"semimajor_km":6840.8652693082,"source":"CELESTRAK","updated_at":"2026-09-22T09:00:49.223750Z"}}}